AD7CQ Weather Reports


Display with metric or nautical units.
time (UTC)temp
F
wind
direction
speed
MPH
gust
MPH
rain 1hr
in
rain 24hr
in
rain mn
in
humidity
%
barometer
mb
20260509134510 54 45 0.0 0.0 0.00 0.00 0.00 72 1017.9
20260509133006 51 44 0.0 2.0 0.00 0.00 0.00 76 1017.7
20260509131502 50 45 0.0 1.0 0.00 0.00 0.00 78 1017.5
20260509124606 50 44 0.0 2.0 0.00 0.00 0.00 74 1017.5
20260509123053 51 93 0.0 1.0 0.00 0.00 0.00 71 1017.4
20260509121551 52 93 0.0 2.0 0.00 0.00 0.00 71 1017.3
20260509120051 52 93 0.0 2.0 0.00 0.00 0.00 72 1017.3
20260509114556 51 93 0.0 2.0 0.00 0.00 0.00 72 1017.3
20260509113050 52 93 0.0 1.0 0.00 0.00 0.00 71 1017.2
20260509111551 51 93 0.0 1.0 0.00 0.00 0.00 71 1017.1
20260509110054 52 93 0.0 1.0 0.00 0.00 0.00 69 1017.3
20260509104547 52 93 0.0 1.0 0.00 0.00 0.00 68 1017.0
20260509103046 51 93 0.0 0.0 0.00 0.00 0.00 71 1017.0
20260509101544 51 93 0.0 0.0 0.00 0.00 0.00 70 1016.9
20260509100041 52 93 0.0 0.0 0.00 0.00 0.00 70 1016.8
20260509094540 52 93 0.0 1.0 0.00 0.00 0.00 70 1016.8
20260509093038 53 93 0.0 0.0 0.00 0.00 0.00 68 1016.6
20260509091536 53 93 0.0 1.0 0.00 0.00 0.00 65 1016.6
20260509090032 54 93 0.0 1.0 0.00 0.00 0.00 63 1016.5
20260509084531 55 93 0.0 0.0 0.00 0.00 0.00 61 1016.5
20260509083026 56 93 0.0 0.0 0.00 0.00 0.00 59 1016.4
20260509081523 56 93 0.0 0.0 0.00 0.00 0.00 56 1016.2
20260509080025 57 93 0.0 2.0 0.00 0.00 0.00 54 1016.1
20260509074516 58 119 0.0 3.0 0.00 0.00 0.00 51 1016.0
20260509073032 60 118 0.0 2.0 0.00 0.00 0.00 49 1015.8
20260509071509 60 119 0.0 2.0 0.00 0.00 0.00 49 1015.6
20260509070007 60 117 0.0 2.0 0.00 0.00 0.00 50 1015.4
20260509064505 61 242 0.0 2.0 0.00 0.00 0.00 46 1015.4
20260509063003 61 242 0.0 0.0 0.00 0.00 0.00 41 1015.2
20260509061501 62 241 0.0 0.0 0.00 0.00 0.00 40 1015.0
20260509060003 62 241 0.0 1.0 0.00 0.00 0.00 38 1015.0
20260509054604 63 241 0.0 2.0 0.00 0.00 0.00 38 1014.5
20260509053057 64 241 0.0 2.0 0.00 0.00 0.00 35 1014.7
20260509051603 65 241 0.0 2.0 0.00 0.00 0.00 34 1014.6
20260509050053 66 241 0.0 2.0 0.00 0.00 0.00 32 1014.3
20260509044554 66 242 0.0 3.0 0.00 0.00 0.00 31 1014.2
20260509043054 66 241 1.0 3.0 0.00 0.00 0.00 31 1013.7
20260509041546 66 253 0.0 2.0 0.00 0.00 0.00 31 1013.5
20260509040052 67 253 0.0 3.0 0.00 0.00 0.00 30 1013.1
20260509034541 67 262 1.0 4.0 0.00 0.00 0.00 29 1012.8
20260509033040 69 270 1.0 4.0 0.00 0.00 0.00 26 1012.6
20260509031538 70 293 2.0 10.0 0.00 0.00 0.00 23 1012.3
20260509030040 71 299 1.0 8.0 0.00 0.00 0.00 22 1012.1
20260509024536 73 254 2.0 6.0 0.00 0.00 0.00 21 1011.6
20260509023036 74 359 1.0 4.0 0.00 0.00 0.00 19 1011.5
20260509021536 75 299 1.0 6.0 0.00 0.00 0.00 20 1011.4
20260509020035 77 273 1.0 8.0 0.00 0.00 0.00 19 1011.2
20260509014534 78 291 1.0 9.0 0.00 0.00 0.00 19 1011.1
20260509013045 79 292 1.0 5.0 0.00 0.00 0.00 20 1011.0
20260509011534 80 308 1.0 6.0 0.00 0.00 0.00 20 1010.8
20260509010037 80 274 1.0 6.0 0.00 0.00 0.00 19 1010.7
20260509004557 81 241 1.0 7.0 0.00 0.00 0.00 17 1010.6
20260509003041 81 248 2.0 8.0 0.00 0.00 0.00 19 1010.5
20260509001531 81 252 2.0 7.0 0.00 0.00 0.00 16 1010.5
20260509000030 81 251 1.0 6.0 0.00 0.00 0.00 18 1010.5
20260508234529 81 241 1.0 9.0 0.00 0.00 0.00 17 1010.5
20260508233029 81 178 3.0 13.0 0.00 0.00 0.00 19 1010.6
20260508231527 80 178 1.0 9.0 0.00 0.00 0.00 20 1010.7
20260508230039 81 206 3.0 11.0 0.00 0.00 0.00 20 1010.7
20260508224523 80 212 2.0 9.0 0.00 0.00 0.00 22 1010.8
20260508223025 80 283 1.0 8.0 0.00 0.00 0.00 22 1010.8
20260508221521 80 212 1.0 6.0 0.00 0.00 0.00 23 1010.8
20260508220020 80 261 2.0 6.0 0.00 0.00 0.00 23 1010.9
20260508214519 80 187 1.0 11.0 0.00 0.00 0.00 23 1010.9
20260508213018 78 165 1.0 8.0 0.00 0.00 0.00 25 1011.0
20260508211516 78 208 3.0 10.0 0.00 0.00 0.00 26 1011.1
20260508210012 77 197 2.0 7.0 0.00 0.00 0.00 26 1011.0
20260508204508 76 177 2.0 6.0 0.00 0.00 0.00 27 1011.2
20260508203006 75 359 2.0 10.0 0.00 0.00 0.00 26 1011.2
20260508201504 75 205 2.0 6.0 0.00 0.00 0.00 27 1011.2
20260508200004 75 217 1.0 8.0 0.00 0.00 0.00 26 1011.2
20260508194501 75 251 1.0 9.0 0.00 0.00 0.00 26 1011.3
20260508193110 74 175 0.0 5.0 0.00 0.00 0.00 28 1011.2
20260508191557 74 218 1.0 10.0 0.00 0.00 0.00 27 1011.3
20260508184618 74 147 1.0 7.0 0.00 0.00 0.00 31 1011.7
20260508183051 73 179 0.0 7.0 0.00 0.00 0.00 32 1011.8
20260508181559 71 170 1.0 9.0 0.00 0.00 0.00 35 1011.9
20260508180045 70 128 1.0 7.0 0.00 0.00 0.00 35 1012.1
20260508174543 68 135 1.0 7.0 0.00 0.00 0.00 40 1012.2
20260508173038 68 165 1.0 7.0 0.00 0.00 0.00 41 1012.1
20260508171538 68 167 2.0 8.0 0.00 0.00 0.00 38 1012.0
20260508170039 68 194 1.0 11.0 0.00 0.00 0.00 39 1011.8
20260508164532 67 193 0.0 6.0 0.00 0.00 0.00 41 1011.8
20260508163029 66 179 1.0 10.0 0.00 0.00 0.00 43 1011.8
20260508161525 65 174 1.0 5.0 0.00 0.00 0.00 45 1011.8
20260508160022 64 168 0.0 5.0 0.00 0.00 0.00 46 1011.7
20260508154518 63 168 1.0 4.0 0.00 0.00 0.00 47 1011.7
20260508153016 62 175 0.0 2.0 0.00 0.00 0.00 48 1011.5
20260508151515 61 129 1.0 6.0 0.00 0.00 0.00 50 1011.5
20260508150019 61 197 0.0 5.0 0.00 0.00 0.00 49 1011.5
20260508144517 60 182 1.0 7.0 0.00 0.00 0.00 49 1011.5
20260508143008 60 128 1.0 3.0 0.00 0.00 0.00 49 1011.3
20260508141505 60 123 0.0 0.0 0.00 0.00 0.00 49 1011.0
20260508140008 59 122 0.0 1.0 0.00 0.00 0.00 49 1010.9